This is the latest recevied weather packets stored in our database for station/object HS8AFA. If no packets are shown the sender has not sent any weather packets the latest 10 day(s).
| Time | Temp. | Humidity | Pressure | Rain* | Wind** | Luminosity | Snow |
|---|---|---|---|---|---|---|---|
| 1778184618 | 26.67° C | 100% | 1008.2 hPa | 0 mm | - | - | - |
| 1778184018 | 26.67° C | 100% | 1008.3 hPa | 0 mm | - | - | - |
| 1778178620 | 27.22° C | 100% | 1009.6 hPa | 0 mm | - | - | - |
| 1778173222 | 27.22° C | 100% | 1010.4 hPa | 0 mm | - | - | - |
| 1778172040 | 27.22° C | 100% | 1010.5 hPa | 0 mm | - | - | - |
| 1778171420 | 27.22° C | 100% | 1010.6 hPa | 0 mm | - | - | - |
| 1778164819 | 27.78° C | 100% | 1010.5 hPa | 0 mm | - | - | - |
| 1778155818 | 27.78° C | 100% | 1009.2 hPa | 0 mm | - | - | - |
| 1778154021 | 28.33° C | 100% | 1008.6 hPa | 0 mm | - | - | - |
| 1778148018 | 28.89° C | 100% | 1007.4 hPa | 0 mm | - | - | - |
| 1778143219 | 28.89° C | 100% | 1008.1 hPa | 0 mm | - | - | - |
| 1778142016 | 28.89° C | 100% | 1007.9 hPa | 0 mm | - | - | - |
| 1778136618 | 30° C | 100% | 1009.1 hPa | 0 mm | - | - | - |
| 1778136019 | 30.56° C | 100% | 1009.2 hPa | 0 mm | - | - | - |
| 1778133018 | 33.33° C | 100% | 1009.2 hPa | 0 mm | - | - | - |
| 1778128819 | 32.22° C | 100% | 1010.1 hPa | 0 mm | - | - | - |
| 1778124620 | 32.22° C | 100% | 1010 hPa | 0 mm | - | - | - |
| 1778122858 | 32.78° C | 100% | 1010.5 hPa | 0 mm | - | - | - |
| 1778122218 | 32.78° C | 100% | 1010.6 hPa | 0 mm | - | - | - |
| 1778115616 | 29.44° C | 100% | 1009.9 hPa | 0 mm | - | - | - |
| 1778114419 | 28.33° C | 100% | 1009.4 hPa | 0 mm | - | - | - |
| 1778106619 | 27.78° C | 100% | 1008.5 hPa | 0 mm | - | - | - |
| 1778104838 | 27.78° C | 100% | 1008.4 hPa | 0 mm | - | - | - |
| 1778101836 | 28.33° C | 100% | 1008.6 hPa | 0 mm | - | - | - |
| 1778100617 | 28.33° C | 100% | 1008.7 hPa | 0 mm | - | - | - |
* Rain latest hour (hover to see other rain measurements)
** Current wind speed in m/s (hover to see current wind gust speed)